Regional Weather Roundup
Issued by NWS

Home | Current Version | Previous Version | Graphics & Text | Print | Product List | Glossary On
Versions: 1 2 3 4 5 6 7 8 9 10 11 12 13 14 15 16 17 18 19 20 21 22 23 24 25 26 27 28 29 30 31 32 33 34 35 36 37 38 39 40 41 42 43 44 45 46 47 48 49 50
000
ASUS43 KFSD 011602
RWRSD

WEATHER ROUNDUP FOR SOUTH DAKOTA
NATIONAL WEATHER SERVICE SIOUX FALLS SD
1000 AM CST SUN MAR 01 2015

NOTE: "FAIR" INDICATES FEW OR NO CLOUDS BELOW 12,000 FEET WITH NO
SIGNIFICANT WEATHER AND/OR OBSTRUCTIONS TO VISIBILITY.


SDZ001>005-009-010-012>017-011700-
NORTHWEST AND NORTH CENTRAL SOUTH DAKOTA

CITY           SKY/WX    TMP DP  RH WIND       PRES   REMARKS
BUFFALO          N/A     20  13  74 NW24G32   30.15R WCI   3
FAITH            N/A     21  10  62 NW18G28   30.25R WCI   6
MOBRIDGE       PTSUNNY   21  13  71 NW9       30.23R WCI  11
$$

SDZ012>016-024>037-041>051-057-063-072>074-011700-
SOUTHWEST AND SOUTH CENTRAL SOUTH DAKOTA

CITY           SKY/WX    TMP DP  RH WIND       PRES   REMARKS
RAPID CTY ARPT SUNNY     22  11  62 NW5       30.26R WCI  16
PIERRE         MOSUNNY   24  11  57 W18       30.29R WCI  10
CUSTER         SUNNY     16   8  71 W13       30.11R WCI   2
ELLSWORTH AFB  SUNNY     18   6  60 N5        30.25R WCI  11
PHILIP         MOSUNNY   27  12  53 W17       30.30S WCI  14
PINE RIDGE     PTSUNNY   21  12  68 NW8       30.28R WCI  11
WINNER         FAIR      27   9  46 W15G26    30.31S WCI  15
$$

SDZ004>011-016>023-039-040-011700-
NORTHEAST SOUTH DAKOTA

CITY           SKY/WX    TMP DP  RH WIND       PRES   REMARKS
ABERDEEN       PTSUNNY   21  10  62 W13       30.26S WCI   9
WATERTOWN      SUNNY     16   8  71 SW14      30.23S WCI   2
SISSETON         N/A     16   6  65 W16       30.23S WCI   1
$$

SDZ017-020-022-023-036>040-048>070-011700-
SOUTHEAST SOUTH DAKOTA

CITY           SKY/WX    TMP DP  RH WIND       PRES   REMARKS
SIOUX FALLS    PTSUNNY   19  11  70 W8        30.32R WCI   9
HURON          SUNNY     22  12  65 W13       30.30F WCI  10
MITCHELL       PTSUNNY   26  10  50 W18       30.33S WCI  13
YANKTON        MOSUNNY   25  14  63 W13       30.37S WCI  13
$$

ABBREVIATIONS USED IN REMARKS
   TC - TEMPERATURE IN CELSIUS
  WCI - WIND CHILL INDEX
   HX - HEAT INDEX
  VSB - VISIBILITY




USA.gov is the U.S. government's official web portal to all federal, state and local government web resources and services.